Zurück zum Katalog

FENGYUN 1C DEB

AktivLEO
NORAD 47040·DEBRIS·🇨🇳 China

Gestartet May 10, 1999 von Taiyuan Satellite Launch Center

Loading…

Nächste Überflüge (nächste 24 Stunden)

TLE

VeraltetSource: Space-Track

Epoche: Aug 17, 2026, 13:52 UTC

1 47040U 99025FBS 26229.57812512  .00000388  00000-0  26185-3 0  9996
2 47040 100.2993 175.2431 0062486 290.3665  69.0793 14.06868774925934

Verfolge FENGYUN 1C DEB in Echtzeit mit AllMySat

Download on the App Store